Weather History for KGSH - December, 2011

Change the Weather History Date:

Sunday, December 25, 2011

  Actual Average Record
Temperature  
Mean Temperature 37 °F -  
Max Temperature 42 °F 31 °F - (-1)
Min Temperature 32 °F 17 °F - (-1)
Degree Days  
Heating Degree Days 28    
Moisture  
Dew Point 27 °F    
Average Humidity 70    
Maximum Humidity 82    
Minimum Humidity 58    
Precipitation  
Precipitation 0.00 in - - ()
Sea Level Pressure  
Sea Level Pressure 30.15 in    
Wind  
Wind Speed 14 mph (WSW)    
Max Wind Speed 18 mph    
Max Gust Speed 28 mph    
Visibility 10 miles    
Events      
Averages and records for this station are not official NWS values.
T = Trace of Precipitation, MM = Missing Value Source: NWS Daily Summary

Daily Weather History Graph

Daily Weather History Graph

Search for Another Location

Airport or City:

Trip Planner

Search our weather history database for the weather conditions in past years. The results will help you decide how hot, cold, wet, or windy it might be!

Date:

Astronomy

Dec. 25, 2011 Rise Set
Actual Time 8:07 AM EST 5:18 PM EST
Civil Twilight 7:36 AM EST 5:49 PM EST
Nautical Twilight 7:01 AM EST 6:24 PM EST
Astronomical Twilight 6:27 AM EST 6:58 PM EST
Moon 8:45 AM EST (12/25) 6:39 PM EST (12/25)
Length of Visible Light 10h 13m
Length of Day
9h 10m
New Moon, 1% of the Moon is Illuminated
Dec 25
New Moon
Jan 1
First Quarter
Jan 9
Full
Jan 16
Last Quarter
Jan 23
New

Hourly Weather History & Observations

Time (EST) Temp. Windchill Dew Point Humidity Pressure Visibility Wind Dir Wind Speed Gust Speed Precip Events Conditions
12:53 AM 32.0 °F 22.1 °F 27.0 °F 82% 30.21 in 10.0 mi SW 13.8 mph - N/A   Clear
1:53 AM 32.0 °F 22.5 °F 27.0 °F 82% 30.18 in 10.0 mi SW 12.7 mph - N/A   Clear
2:53 AM 33.1 °F 24.4 °F 27.0 °F 78% 30.17 in 10.0 mi SW 11.5 mph - N/A   Clear
3:53 AM 33.1 °F 23.0 °F 27.0 °F 78% 30.14 in 10.0 mi SSW 15.0 mph - N/A   Overcast
4:53 AM 34.0 °F 23.8 °F 27.0 °F 75% 30.12 in 10.0 mi SW 16.1 mph - N/A   Overcast
5:53 AM 33.1 °F 23.0 °F 27.0 °F 78% 30.12 in 10.0 mi SW 15.0 mph - N/A   Clear
6:53 AM 33.1 °F 23.4 °F 27.0 °F 78% 30.12 in 10.0 mi SW 13.8 mph - N/A   Clear
7:53 AM 34.0 °F 23.4 °F 27.0 °F 75% 30.09 in 10.0 mi SW 17.3 mph - N/A   Clear
8:53 AM 33.1 °F 23.0 °F 27.0 °F 78% 30.07 in 10.0 mi SSW 15.0 mph - N/A   Clear
9:53 AM 35.1 °F 24.8 °F 28.0 °F 76% 30.09 in 10.0 mi SW 17.3 mph - N/A   Clear
10:53 AM 37.9 °F 29.6 °F 28.0 °F 68% 30.06 in 10.0 mi SW 13.8 mph - N/A   Clear
11:53 AM 41.0 °F 32.2 °F 28.0 °F 60% 30.08 in 10.0 mi West 18.4 mph 27.6 mph N/A   Overcast
12:53 PM 42.1 °F 33.9 °F 28.9 °F 60% 30.08 in 10.0 mi West 17.3 mph 24.2 mph N/A   Partly Cloudy
2:53 PM 41.0 °F 32.5 °F 28.9 °F 62% 30.10 in 10.0 mi WNW 17.3 mph 27.6 mph N/A   Overcast
3:53 PM 39.9 °F 30.8 °F 27.0 °F 60% 30.14 in 10.0 mi WNW 18.4 mph 25.3 mph N/A   Overcast
4:53 PM 39.9 °F 32.1 °F 28.0 °F 63% 30.18 in 10.0 mi NW 13.8 mph - N/A   Overcast
6:53 PM 39.9 °F 33.9 °F 26.1 °F 58% 30.22 in 10.0 mi WNW 9.2 mph - N/A   Overcast
7:53 PM 39.0 °F 32.8 °F 27.0 °F 62% 30.25 in 10.0 mi NW 9.2 mph - N/A   Overcast
8:53 PM 39.9 °F 32.5 °F 27.0 °F 60% 30.27 in 10.0 mi NW 12.7 mph - N/A   Overcast
9:53 PM 39.0 °F 32.3 °F 28.0 °F 65% 30.27 in 10.0 mi NW 10.4 mph - N/A   Overcast
10:53 PM 37.9 °F 32.7 °F 28.0 °F 68% 30.29 in 10.0 mi WNW 6.9 mph - N/A   Overcast